Details From ENZV - Stavanger Lufthavn Sola
To ENTO - TORP
Flight Number -
Tags decoded
Created
Modified
Stats Distance 148 nm / 273 km
Max Altitude 0 ft / 0 m
Waypoints 3
Social Downloads 2
Likes 0
Share VATSIM

Download

Looking for another format? Having issues loading an existing format? Contact us
Advertisement - Login to hide

Notes

Requested: ENZV UPLEV Z132 OSKOM Z316 RIPAM ENTO Unmatched points: UPLEV Z132 OSKOM Z316

Route

ENZV RIPAM ENTO

ID Type Via Altitude Latitude Longitude Leg Dist Tot Dist Heading (true) Name
O ENZV APT - 0 ft / 0 m 58.88046˚ 5.63143˚ - 0 nm - Stavanger Lufthavn Sola
RIPAM FIX - 0 ft / 0 m 59.32778˚ 9.75000˚ 129 nm 129 nm 76° / 80° -
O ENTO APT - 0 ft / 0 m 59.18666˚ 10.25860˚ 17 nm 147 nm 118° / 119° TORP

Altitude Profile

Advertisement - Login to hide

ENZV

Details ICAO ENZV (SVG)
Name Stavanger Lufthavn Sola
Region Norway
Timezone Europe/Oslo (UTC+2.0)
Stats Elevation 29 ft / 9 m (AMSL)
Location 58.880464° 5.631430°
Runways 2
Magnetic Variation 1.166° E

METAR

ENZV 250520Z VRB02KT CAVOK 16/11 Q1027 NOSIG

Decode

TAF

TAF ENZV 242300Z 2500/2524 VRB05KT CAVOK BECMG 2510/2513 34010KT BECMG 2518/2521 04005KT

Decode

Departure Runways

ID Width Length Bearing (true) Bearing (mag) Surface Threshold Offset Overrun Length
11 148 ft / 45 m 8,018 ft / 2,444 m 106.32° 105.15° Asphalt 328 ft / 100 m 0 ft / 0 m
18 197 ft / 60 m 8,372 ft / 2,552 m 179.12° 177.95° Asphalt 197 ft / 60 m 0 ft / 0 m
29 148 ft / 45 m 8,018 ft / 2,444 m 286.36° 285.19° Asphalt 502 ft / 153 m 0 ft / 0 m
36 197 ft / 60 m 8,372 ft / 2,552 m 359.12° 357.95° Asphalt 0 ft / 0 m 0 ft / 0 m

ENTO

Details ICAO ENTO (TRF)
Name TORP
Region Norway
Timezone Europe/Oslo (UTC+2.0)
Stats Elevation 286 ft / 87 m (AMSL)
Location 59.186662° 10.258596°
Runways 1
Magnetic Variation 3.070° E

METAR

ENTO 250520Z 35003KT CAVOK 16/10 Q1027

Decode

TAF

TAF ENTO 242300Z 2500/2524 VRB05KT CAVOK

Decode

Destination Runways

ID Width Length Bearing (true) Bearing (mag) Surface Threshold Offset Overrun Length
18 148 ft / 45 m 9,820 ft / 2,993 m 179.40° 176.33° Asphalt 1,231 ft / 375 m 0 ft / 0 m
36 148 ft / 45 m 9,820 ft / 2,993 m 359.40° 356.33° Asphalt 1,231 ft / 375 m 0 ft / 0 m

Approach Navaids

Runway Type Ident Frequency Range Bearing (true) Bearing (mag) Slope Elevation
18 Localiser TP 108.30 MHz 18 nm / 33 km 179.33° 176.26° - 312 ft / 95 m (AMSL)
18 Glidescope TP 108.30 MHz 10 nm / 19 km 179.40° 176.33° 3.00° 286 ft / 87 m (AMSL)
36 Localiser SFJ 110.95 MHz 25 nm / 46 km 359.33° 356.26° - 268 ft / 82 m (AMSL)
36 Glidescope SFJ 110.95 MHz 25 nm / 46 km 359.33° 356.26° 3.00° 254 ft / 77 m (AMSL)
36 DME SFJ 110.95 MHz 25 nm / 46 km - - - 279 ft / 85 m (AMSL)

Popular Alternatives